Time,TemperatureF,DewpointF,PressureIn,WindDirection,WindDirectionDegrees,WindSpeedMPH,WindSpeedGustMPH,Humidity,HourlyPrecipIn,Conditions,Clouds,dailyrainin,SoftwareType,DateUTC
2013-08-27 00:12:00,70.2,65.5,29.71,West,270,2.2,-999.0,85,-99.99,,,0.00,Acu-Link.com,2013-08-27 04:12:00,
2013-08-27 00:28:00,70.0,65.3,29.71,South,180,0.0,-999.0,85,-99.99,,,0.00,Acu-Link.com,2013-08-27 04:28:00,
2013-08-27 00:43:00,69.8,65.4,29.71,SSW,202,1.1,-999.0,86,-99.99,,,0.00,Acu-Link.com,2013-08-27 04:43:00,
2013-08-27 00:58:00,69.8,65.4,29.71,South,180,0.0,-999.0,86,-99.99,,,0.00,Acu-Link.com,2013-08-27 04:58:00,
2013-08-27 01:13:00,69.6,65.6,29.70,South,180,1.7,-999.0,87,-99.99,,,0.00,Acu-Link.com,2013-08-27 05:13:00,
2013-08-27 01:29:00,69.1,65.7,29.70,SSE,157,0.0,-999.0,89,-99.99,,,0.00,Acu-Link.com,2013-08-27 05:29:00,
2013-08-27 01:44:00,68.9,65.8,29.70,WSW,247,0.0,-999.0,90,-99.99,,,0.00,Acu-Link.com,2013-08-27 05:44:00,
2013-08-27 01:59:00,68.7,66.0,29.69,SSW,202,0.0,-999.0,91,-99.99,,,0.00,Acu-Link.com,2013-08-27 05:59:00,
2013-08-27 02:14:00,68.5,66.1,29.70,WSW,247,0.0,-999.0,92,-99.99,,,0.00,Acu-Link.com,2013-08-27 06:14:00,
2013-08-27 02:29:00,68.4,66.0,29.69,West,270,0.0,-999.0,92,-99.99,,,0.00,Acu-Link.com,2013-08-27 06:29:00,
2013-08-27 02:45:00,68.4,66.0,29.69,South,180,2.2,-999.0,92,-99.99,,,0.00,Acu-Link.com,2013-08-27 06:45:00,
2013-08-27 03:00:00,68.2,65.8,29.68,West,270,2.7,-999.0,92,-99.99,,,0.00,Acu-Link.com,2013-08-27 07:00:00,
2013-08-27 03:15:00,68.2,66.1,29.68,SW,225,2.7,-999.0,93,-99.99,,,0.00,Acu-Link.com,2013-08-27 07:15:00,
2013-08-27 03:30:00,68.2,66.1,29.68,WNW,292,0.0,-999.0,93,-99.99,,,0.00,Acu-Link.com,2013-08-27 07:30:00,
2013-08-27 03:45:00,68.2,66.1,29.69,North,0,0.0,-999.0,93,-99.99,,,0.00,Acu-Link.com,2013-08-27 07:45:00,
2013-08-27 04:01:00,67.8,65.7,29.69,East,90,0.0,-999.0,93,-99.99,,,0.00,Acu-Link.com,2013-08-27 08:01:00,
2013-08-27 04:18:00,67.8,65.7,29.68,ESE,112,0.0,-999.0,93,-99.99,,,0.00,Acu-Link.com,2013-08-27 08:18:00,
2013-08-27 04:33:00,67.8,65.7,29.68,SSE,157,1.1,-999.0,93,-99.99,,,0.00,Acu-Link.com,2013-08-27 08:33:00,
2013-08-27 04:48:00,67.8,66.0,29.69,South,180,0.0,-999.0,94,-99.99,,,0.00,Acu-Link.com,2013-08-27 08:48:00,
2013-08-27 05:04:00,67.6,65.8,29.68,ESE,112,0.0,-999.0,94,-99.99,,,0.00,Acu-Link.com,2013-08-27 09:04:00,
2013-08-27 05:19:00,67.6,66.1,29.68,WNW,292,0.0,-999.0,95,-99.99,,,0.00,Acu-Link.com,2013-08-27 09:19:00,
2013-08-27 05:34:00,67.6,66.1,29.69,South,180,0.0,-999.0,95,-99.99,,,0.00,Acu-Link.com,2013-08-27 09:34:00,
2013-08-27 05:49:00,67.6,66.1,29.69,South,180,0.0,-999.0,95,-99.99,,,0.00,Acu-Link.com,2013-08-27 09:49:00,
2013-08-27 06:04:00,67.5,66.0,29.70,East,90,0.0,-999.0,95,-99.99,,,0.00,Acu-Link.com,2013-08-27 10:04:00,
2013-08-27 06:20:00,67.6,66.4,29.70,WSW,247,0.0,-999.0,96,-99.99,,,0.00,Acu-Link.com,2013-08-27 10:20:00,
2013-08-27 06:35:00,67.6,66.4,29.70,SSE,157,0.0,-999.0,96,-99.99,,,0.00,Acu-Link.com,2013-08-27 10:35:00,
2013-08-27 06:50:00,68.2,67.0,29.71,South,180,0.0,-999.0,96,-99.99,,,0.00,Acu-Link.com,2013-08-27 10:50:00,
2013-08-27 07:05:00,68.5,66.7,29.70,SE,135,0.0,-999.0,94,-99.99,,,0.00,Acu-Link.com,2013-08-27 11:05:00,
2013-08-27 07:20:00,69.3,67.5,29.71,ESE,112,0.0,-999.0,94,-99.99,,,0.00,Acu-Link.com,2013-08-27 11:20:00,
2013-08-27 07:36:00,70.3,67.5,29.71,East,90,2.7,-999.0,91,-99.99,,,0.00,Acu-Link.com,2013-08-27 11:36:00,
2013-08-27 07:51:00,72.0,68.6,29.71,NNE,22,2.7,-999.0,89,-99.99,,,0.00,Acu-Link.com,2013-08-27 11:51:00,
2013-08-27 08:06:00,72.7,68.3,29.71,ENE,67,3.7,-999.0,86,-99.99,,,0.00,Acu-Link.com,2013-08-27 12:06:00,
2013-08-27 08:21:00,73.6,68.8,29.71,SE,135,2.7,-999.0,85,-99.99,,,0.00,Acu-Link.com,2013-08-27 12:21:00,
2013-08-27 08:37:00,74.1,68.9,29.71,SE,135,3.7,-999.0,84,-99.99,,,0.00,Acu-Link.com,2013-08-27 12:37:00,
2013-08-27 08:52:00,75.6,69.7,29.70,South,180,4.2,-999.0,82,-99.99,,,0.00,Acu-Link.com,2013-08-27 12:52:00,
2013-08-27 09:07:00,76.6,69.6,29.70,ESE,112,3.7,-999.0,79,-99.99,,,0.00,Acu-Link.com,2013-08-27 13:07:00,
2013-08-27 09:22:00,77.2,69.4,29.70,ENE,67,2.2,-999.0,77,-99.99,,,0.00,Acu-Link.com,2013-08-27 13:22:00,
2013-08-27 09:38:00,78.1,70.3,29.71,WNW,292,4.7,-999.0,77,-99.99,,,0.00,Acu-Link.com,2013-08-27 13:38:00,
2013-08-27 09:53:00,78.3,69.7,29.71,NE,45,4.2,-999.0,75,-99.99,,,0.00,Acu-Link.com,2013-08-27 13:53:00,
2013-08-27 10:08:00,78.4,69.0,29.71,West,270,5.3,-999.0,73,-99.99,,,0.00,Acu-Link.com,2013-08-27 14:08:00,
2013-08-27 10:23:00,77.5,68.1,29.70,NNE,22,7.3,-999.0,73,-99.99,,,0.00,Acu-Link.com,2013-08-27 14:23:00,
2013-08-27 10:39:00,79.9,68.8,29.71,East,90,5.8,-999.0,69,-99.99,,,0.00,Acu-Link.com,2013-08-27 14:39:00,
2013-08-27 10:54:00,78.6,68.4,29.72,East,90,4.2,-999.0,71,-99.99,,,0.00,Acu-Link.com,2013-08-27 14:54:00,
2013-08-27 11:09:00,79.5,68.4,29.72,ESE,112,3.7,-999.0,69,-99.99,,,0.00,Acu-Link.com,2013-08-27 15:09:00,
2013-08-27 11:24:00,80.6,68.6,29.71,NNW,337,3.2,-999.0,67,-99.99,,,0.00,Acu-Link.com,2013-08-27 15:24:00,
2013-08-27 11:39:00,80.4,67.1,29.71,SE,135,6.3,-999.0,64,-99.99,,,0.00,Acu-Link.com,2013-08-27 15:39:00,
2013-08-27 11:55:00,81.5,68.6,29.71,ESE,112,3.7,-999.0,65,-99.99,,,0.00,Acu-Link.com,2013-08-27 15:55:00,
2013-08-27 12:10:00,80.4,67.1,29.71,ESE,112,3.7,-999.0,64,-99.99,,,0.00,Acu-Link.com,2013-08-27 16:10:00,
2013-08-27 12:25:00,82.2,67.9,29.71,East,90,5.8,-999.0,62,-99.99,,,0.00,Acu-Link.com,2013-08-27 16:25:00,
2013-08-27 12:40:00,83.1,68.2,29.70,SE,135,6.3,-999.0,61,-99.99,,,0.00,Acu-Link.com,2013-08-27 16:40:00,
2013-08-27 12:55:00,83.1,67.8,29.70,South,180,3.7,-999.0,60,-99.99,,,0.00,Acu-Link.com,2013-08-27 16:55:00,
2013-08-27 13:11:00,81.9,67.1,29.71,East,90,4.2,-999.0,61,-99.99,,,0.00,Acu-Link.com,2013-08-27 17:11:00,
2013-08-27 13:26:00,85.3,67.3,29.70,ENE,67,4.7,-999.0,55,-99.99,,,0.00,Acu-Link.com,2013-08-27 17:26:00,
2013-08-27 13:41:00,82.8,67.0,29.70,ESE,112,5.3,-999.0,59,-99.99,,,0.00,Acu-Link.com,2013-08-27 17:41:00,
2013-08-27 13:56:00,84.2,67.3,29.69,East,90,4.7,-999.0,57,-99.99,,,0.00,Acu-Link.com,2013-08-27 17:56:00,
2013-08-27 14:11:00,84.4,67.0,29.70,ENE,67,2.7,-999.0,56,-99.99,,,0.00,Acu-Link.com,2013-08-27 18:11:00,
2013-08-27 14:27:00,84.4,64.3,29.68,ESE,112,5.3,-999.0,51,-99.99,,,0.00,Acu-Link.com,2013-08-27 18:27:00,
2013-08-27 14:42:00,86.0,66.8,29.67,West,270,5.8,-999.0,53,-99.99,,,0.00,Acu-Link.com,2013-08-27 18:42:00,
2013-08-27 14:57:00,87.1,65.6,29.67,East,90,3.7,-999.0,49,-99.99,,,0.00,Acu-Link.com,2013-08-27 18:57:00,
2013-08-27 15:12:00,87.1,66.7,29.67,SSW,202,3.2,-999.0,51,-99.99,,,0.00,Acu-Link.com,2013-08-27 19:12:00,
2013-08-27 15:28:00,85.5,64.7,29.66,WSW,247,2.7,-999.0,50,-99.99,,,0.00,Acu-Link.com,2013-08-27 19:28:00,
2013-08-27 15:43:00,86.2,67.6,29.65,ESE,112,2.7,-999.0,54,-99.99,,,0.00,Acu-Link.com,2013-08-27 19:43:00,
2013-08-27 15:58:00,86.4,66.1,29.66,SE,135,2.2,-999.0,51,-99.99,,,0.00,Acu-Link.com,2013-08-27 19:58:00,
2013-08-27 16:13:00,86.9,67.1,29.67,South,180,1.7,-999.0,52,-99.99,,,0.00,Acu-Link.com,2013-08-27 20:13:00,
2013-08-27 16:28:00,84.6,68.7,29.65,SSE,157,4.2,-999.0,59,-99.99,,,0.00,Acu-Link.com,2013-08-27 20:28:00,
2013-08-27 16:44:00,84.2,66.8,29.65,ESE,112,1.7,-999.0,56,-99.99,,,0.00,Acu-Link.com,2013-08-27 20:44:00,
2013-08-27 16:59:00,84.0,68.1,29.65,NNE,22,4.7,-999.0,59,-99.99,,,0.00,Acu-Link.com,2013-08-27 20:59:00,
2013-08-27 17:14:00,84.4,68.0,29.66,East,90,6.8,-999.0,58,-99.99,,,0.00,Acu-Link.com,2013-08-27 21:14:00,
2013-08-27 17:29:00,83.7,68.3,29.67,North,0,3.7,-999.0,60,-99.99,,,0.00,Acu-Link.com,2013-08-27 21:29:00,
2013-08-27 17:45:00,82.8,68.4,29.66,ENE,67,2.2,-999.0,62,-99.99,,,0.00,Acu-Link.com,2013-08-27 21:45:00,
2013-08-27 18:00:00,81.5,68.1,29.66,ENE,67,4.7,-999.0,64,-99.99,,,0.00,Acu-Link.com,2013-08-27 22:00:00,
2013-08-27 18:15:00,80.2,67.3,29.66,NE,45,3.2,-999.0,65,-99.99,,,0.00,Acu-Link.com,2013-08-27 22:15:00,
2013-08-27 18:31:00,79.9,67.1,29.66,ESE,112,2.7,-999.0,65,-99.99,,,0.00,Acu-Link.com,2013-08-27 22:31:00,
2013-08-27 18:46:00,78.6,66.7,29.67,ENE,67,4.2,-999.0,67,-99.99,,,0.00,Acu-Link.com,2013-08-27 22:46:00,
2013-08-27 19:01:00,77.7,66.3,29.67,East,90,1.7,-999.0,68,-99.99,,,0.00,Acu-Link.com,2013-08-27 23:01:00,
2013-08-27 19:17:00,76.6,66.1,29.67,ESE,112,1.1,-999.0,70,-99.99,,,0.00,Acu-Link.com,2013-08-27 23:17:00,
2013-08-27 19:32:00,75.6,65.1,29.67,SSW,202,0.0,-999.0,70,-99.99,,,0.00,Acu-Link.com,2013-08-27 23:32:00,
2013-08-27 19:47:00,74.5,64.5,29.68,ESE,112,1.7,-999.0,71,-99.99,,,0.00,Acu-Link.com,2013-08-27 23:47:00,
2013-08-27 20:02:00,73.2,64.0,29.69,ESE,112,0.0,-999.0,73,-99.99,,,0.00,Acu-Link.com,2013-08-28 00:02:00,
2013-08-27 20:17:00,72.5,63.7,29.70,SSW,202,0.0,-999.0,74,-99.99,,,0.00,Acu-Link.com,2013-08-28 00:17:00,
2013-08-27 20:33:00,71.6,64.4,29.70,ESE,112,0.0,-999.0,78,-99.99,,,0.00,Acu-Link.com,2013-08-28 00:33:00,
2013-08-27 20:48:00,70.9,64.4,29.70,North,0,0.0,-999.0,80,-99.99,,,0.00,Acu-Link.com,2013-08-28 00:48:00,
2013-08-27 21:03:00,70.2,64.1,29.70,WSW,247,2.2,-999.0,81,-99.99,,,0.00,Acu-Link.com,2013-08-28 01:03:00,
2013-08-27 21:18:00,69.6,63.9,29.71,ESE,112,0.0,-999.0,82,-99.99,,,0.00,Acu-Link.com,2013-08-28 01:18:00,
2013-08-27 21:33:00,69.1,63.7,29.72,South,180,0.0,-999.0,83,-99.99,,,0.00,Acu-Link.com,2013-08-28 01:33:00,
2013-08-27 21:49:00,68.2,63.2,29.72,West,270,1.7,-999.0,84,-99.99,,,0.00,Acu-Link.com,2013-08-28 01:49:00,
2013-08-27 22:04:00,68.0,63.0,29.73,SSE,157,0.0,-999.0,84,-99.99,,,0.00,Acu-Link.com,2013-08-28 02:04:00,
2013-08-27 22:19:00,67.5,63.2,29.73,SSW,202,0.0,-999.0,86,-99.99,,,0.00,Acu-Link.com,2013-08-28 02:19:00,
2013-08-27 22:34:00,67.1,63.1,29.73,ESE,112,0.0,-999.0,87,-99.99,,,0.00,Acu-Link.com,2013-08-28 02:34:00,
2013-08-27 23:05:00,66.6,63.3,29.73,West,270,0.0,-999.0,89,-99.99,,,0.00,Acu-Link.com,2013-08-28 03:05:00,
2013-08-27 23:21:00,66.2,63.2,29.73,SW,225,0.0,-999.0,90,-99.99,,,0.00,Acu-Link.com,2013-08-28 03:21:00,
2013-08-27 23:36:00,66.0,63.0,29.73,NE,45,0.0,-999.0,90,-99.99,,,0.00,Acu-Link.com,2013-08-28 03:36:00,
2013-08-27 23:51:00,65.7,62.7,29.73,ENE,67,0.0,-999.0,90,-99.99,,,0.00,Acu-Link.com,2013-08-28 03:51:00,